| time (UTC) | temp C | wind direction | speed KPH | gust KPH | rain 1hr cm | rain 24hr cm | rain mn cm | humidity % | barometer mb |
| 20260502231003 | 8 | 337 | 4.8 | 8.0 | 0.00 | 0.00 | 0.00 | 30 | 1005.5 |
| 20260502230002 | 9 | 337 | 4.8 | 6.4 | 0.00 | 0.00 | 0.00 | 32 | 1005.6 |
| 20260502225003 | 8 | 338 | 4.8 | 12.9 | 0.00 | 0.00 | 0.00 | 32 | 1003.9 |
| 20260502224003 | 8 | 338 | 3.2 | 9.7 | 0.00 | 0.00 | 0.00 | 32 | 1003.9 |
| 20260502223002 | 8 | 338 | 6.4 | 12.9 | 0.00 | 0.00 | 0.00 | 30 | 1004.1 |
| 20260502222002 | 8 | 337 | 9.7 | 14.5 | 0.00 | 0.00 | 0.00 | 28 | 1004.2 |
| 20260502221003 | 8 | 337 | 4.8 | 14.5 | 0.00 | 0.00 | 0.00 | 29 | 1004.2 |
| 20260502214002 | 10 | 1 | 8.0 | 11.3 | 0.00 | 0.00 | 0.00 | 29 | 1004.5 |
| 20260502213003 | 8 | 1 | 9.7 | 14.5 | 0.00 | 0.00 | 0.00 | 28 | 1004.0 |
| 20260502212003 | 8 | 1 | 9.7 | 17.7 | 0.00 | 0.00 | 0.00 | 28 | 1004.1 |
| 20260502211003 | 8 | 1 | 8.0 | 12.9 | 0.00 | 0.00 | 0.00 | 28 | 1004.2 |
| 20260502210002 | 8 | 1 | 6.4 | 11.3 | 0.00 | 0.00 | 0.00 | 30 | 1004.5 |
| 20260502205003 | 8 | 1 | 6.4 | 12.9 | 0.00 | 0.00 | 0.00 | 29 | 1004.5 |
| 20260502204002 | 8 | 1 | 8.0 | 12.9 | 0.00 | 0.00 | 0.00 | 27 | 1004.7 |
| 20260502203003 | 8 | 1 | 8.0 | 14.5 | 0.00 | 0.00 | 0.00 | 27 | 1005.1 |
| 20260502202003 | 8 | 1 | 9.7 | 12.9 | 0.00 | 0.00 | 0.00 | 24 | 1005.2 |
| 20260502201002 | 10 | 1 | 11.3 | 14.5 | 0.00 | 0.00 | 0.00 | 24 | 1005.4 |
| 20260502200003 | 10 | 1 | 9.7 | 12.9 | 0.00 | 0.00 | 0.00 | 26 | 1005.3 |
| 20260502194002 | 10 | 1 | 9.7 | 17.7 | 0.00 | 0.00 | 0.00 | 23 | 1004.8 |
| 20260502193003 | 10 | 1 | 8.0 | 12.9 | 0.00 | 0.00 | 0.00 | 27 | 1004.9 |
| 20260502192004 | 9 | 1 | 9.7 | 14.5 | 0.00 | 0.00 | 0.00 | 24 | 1004.8 |
| 20260502190002 | 10 | 1 | 8.0 | 14.5 | 0.00 | 0.00 | 0.00 | 25 | 1004.8 |
| 20260502184002 | 10 | 1 | 6.4 | 16.1 | 0.00 | 0.00 | 0.00 | 23 | 1004.5 |
| 20260502183003 | 10 | 1 | 6.4 | 8.0 | 0.00 | 0.00 | 0.00 | 27 | 1004.3 |
| 20260502182003 | 9 | 1 | 9.7 | 19.3 | 0.00 | 0.00 | 0.00 | 26 | 1003.9 |
| 20260502163003 | 8 | 235 | 9.7 | 17.7 | 0.00 | 0.00 | 0.00 | 27 | 1001.9 |
| 20260502162002 | 10 | 225 | 6.4 | 8.0 | 0.00 | 0.00 | 0.00 | 27 | 1001.8 |
| 20260502161004 | 9 | 232 | 9.7 | 12.9 | 0.00 | 0.00 | 0.00 | 31 | 1001.7 |
| 20260502152003 | 7 | 25 | 8.0 | 11.3 | 0.00 | 0.00 | 0.00 | 30 | 1001.2 |
| 20260502151003 | 8 | 332 | 4.8 | 6.4 | 0.00 | 0.00 | 0.00 | 33 | 1000.9 |
| 20260502123003 | 3 | 5 | 3.2 | 6.4 | 0.00 | 0.00 | 0.00 | 66 | 1007.2 |
| 20260502122003 | 2 | 23 | 3.2 | 6.4 | 0.00 | 0.00 | 0.00 | 65 | 997.9 |
| 20260502121003 | 0 | 23 | 3.2 | 6.4 | 0.00 | 0.00 | 0.00 | 68 | 1006.8 |
| 20260502115003 | 0 | 31 | 4.8 | 11.3 | 0.00 | 0.00 | 0.00 | 72 | 997.9 |
| 20260502114003 | 0 | 34 | 4.8 | 9.7 | 0.00 | 0.00 | 0.00 | 72 | 998.2 |
| 20260502113004 | -1 | 22 | 3.2 | 6.4 | 0.00 | 0.00 | 0.00 | 72 | 998.3 |
| 20260502112003 | -1 | 23 | 0.0 | 3.2 | 0.00 | 0.00 | 0.00 | 72 | 997.7 |
| 20260502111003 | -2 | 22 | 1.6 | 3.2 | 0.00 | 0.00 | 0.00 | 67 | 1006.7 |
| 20260502105003 | -2 | 23 | 0.0 | 3.2 | 0.00 | 0.00 | 0.00 | 64 | 1006.5 |
| 20260502104003 | -2 | 22 | 0.0 | 1.6 | 0.00 | 0.00 | 0.00 | 67 | 1006.5 |
| 20260502103003 | -1 | 22 | 1.6 | 3.2 | 0.00 | 0.00 | 0.00 | 66 | 997.5 |
| 20260502102004 | -1 | 23 | 0.0 | 3.2 | 0.00 | 0.00 | 0.00 | 65 | 997.4 |
| 20260502091003 | 0 | 22 | 3.2 | 4.8 | 0.00 | 0.00 | 0.00 | 62 | 997.6 |
| 20260502071002 | 2 | 23 | 1.6 | 3.2 | 0.00 | 0.00 | 0.00 | 51 | 997.7 |
| 20260502070002 | 2 | 22 | 1.6 | 3.2 | 0.00 | 0.00 | 0.00 | 50 | 998.0 |
| 20260502065002 | 2 | 22 | 1.6 | 4.8 | 0.00 | 0.00 | 0.00 | 50 | 998.3 |
| 20260502064002 | 2 | 22 | 1.6 | 3.2 | 0.00 | 0.00 | 0.00 | 54 | 998.4 |
| 20260502063002 | 3 | 23 | 3.2 | 4.8 | 0.00 | 0.00 | 0.00 | 53 | 998.0 |
| 20260502061003 | 3 | 22 | 3.2 | 4.8 | 0.00 | 0.00 | 0.00 | 53 | 998.5 |
| 20260502060002 | 3 | 22 | 3.2 | 4.8 | 0.00 | 0.00 | 0.00 | 53 | 998.4 |
| 20260502055002 | 3 | 23 | 3.2 | 4.8 | 0.00 | 0.00 | 0.00 | 54 | 998.2 |
| 20260502054002 | 3 | 22 | 3.2 | 6.4 | 0.00 | 0.00 | 0.00 | 54 | 998.5 |
| 20260502053002 | 3 | 23 | 3.2 | 6.4 | 0.00 | 0.00 | 0.00 | 55 | 998.6 |
| 20260502052003 | 3 | 22 | 3.2 | 6.4 | 0.00 | 0.00 | 0.00 | 55 | 998.7 |
| 20260502051002 | 3 | 22 | 4.8 | 6.4 | 0.00 | 0.00 | 0.00 | 56 | 998.3 |
| 20260502050002 | 3 | 22 | 1.6 | 6.4 | 0.00 | 0.00 | 0.00 | 57 | 998.4 |
| 20260502045002 | 3 | 22 | 3.2 | 6.4 | 0.00 | 0.00 | 0.00 | 59 | 998.4 |
| 20260502044002 | 3 | 22 | 3.2 | 6.4 | 0.00 | 0.00 | 0.00 | 62 | 998.6 |
| 20260502043003 | 3 | 22 | 3.2 | 6.4 | 0.00 | 0.00 | 0.00 | 64 | 998.7 |
| 20260502041002 | 2 | 22 | 4.8 | 6.4 | 0.00 | 0.03 | 0.00 | 67 | 999.0 |
| 20260502040004 | 2 | 22 | 3.2 | 6.4 | 0.00 | 0.03 | 0.00 | 69 | 999.0 |
| 20260502035002 | 2 | 23 | 1.6 | 4.8 | 0.00 | 0.03 | 0.03 | 70 | 999.1 |
| 20260502034004 | 1 | 22 | 0.0 | 1.6 | 0.00 | 0.03 | 0.03 | 71 | 999.3 |
| 20260502033002 | 1 | 0 | 0.0 | 0.0 | 0.00 | 0.03 | 0.03 | 70 | 999.4 |
| 20260502031002 | 1 | 0 | 0.0 | 0.0 | 0.00 | 0.05 | 0.03 | 68 | 999.7 |
| 20260502030003 | 1 | 0 | 0.0 | 0.0 | 0.00 | 0.05 | 0.03 | 66 | 999.9 |
| 20260502025003 | 1 | 0 | 0.0 | 0.0 | 0.00 | 0.05 | 0.03 | 64 | 1000.0 |
| 20260502024003 | 1 | 0 | 0.0 | 0.0 | 0.00 | 0.05 | 0.03 | 62 | 1000.2 |
| 20260502023002 | 1 | 0 | 0.0 | 0.0 | 0.00 | 0.05 | 0.03 | 61 | 1000.3 |
| 20260502022003 | 1 | 0 | 0.0 | 0.0 | 0.00 | 0.05 | 0.03 | 60 | 1000.6 |
| 20260502021002 | 2 | 0 | 0.0 | 0.0 | 0.00 | 0.05 | 0.03 | 58 | 1000.7 |
| 20260502020002 | 2 | 23 | 0.0 | 1.6 | 0.00 | 0.05 | 0.03 | 56 | 1000.9 |
| 20260502015002 | 3 | 23 | 0.0 | 1.6 | 0.00 | 0.05 | 0.03 | 58 | 1000.9 |
| 20260502014002 | 3 | 22 | 4.8 | 8.0 | 0.00 | 0.05 | 0.03 | 58 | 1001.1 |
| 20260502013003 | 3 | 23 | 3.2 | 3.2 | 0.00 | 0.05 | 0.03 | 56 | 1001.3 |
| 20260502012003 | 4 | 22 | 4.8 | 6.4 | 0.00 | 0.05 | 0.03 | 54 | 1001.5 |
| 20260502011003 | 5 | 22 | 1.6 | 3.2 | 0.00 | 0.05 | 0.03 | 53 | 1001.5 |
| 20260502010002 | 5 | 23 | 4.8 | 6.4 | 0.00 | 0.05 | 0.03 | 51 | 1001.7 |
| 20260502005003 | 5 | 22 | 6.4 | 9.7 | 0.00 | 0.05 | 0.03 | 51 | 1002.0 |
| 20260502004002 | 5 | 15 | 8.0 | 12.9 | 0.00 | 0.05 | 0.03 | 52 | 1002.1 |
| 20260502003003 | 5 | 316 | 8.0 | 12.9 | 0.00 | 0.05 | 0.03 | 52 | 1002.4 |
| 20260502002002 | 5 | 314 | 4.8 | 11.3 | 0.00 | 0.05 | 0.03 | 52 | 1002.7 |
| 20260502001003 | 6 | 314 | 4.8 | 9.7 | 0.00 | 0.05 | 0.03 | 51 | 1002.5 |
| 20260502000002 | 6 | 314 | 4.8 | 9.7 | 0.00 | 0.05 | 0.03 | 50 | 1002.2 |
| 20260501235003 | 6 | 314 | 3.2 | 9.7 | 0.00 | 0.05 | 0.03 | 50 | 1002.5 |
| 20260501234002 | 6 | 314 | 3.2 | 4.8 | 0.00 | 0.05 | 0.03 | 50 | 1002.6 |
| 20260501232002 | 6 | 314 | 4.8 | 9.7 | 0.00 | 0.05 | 0.03 | 50 | 1002.6 |